Starlink 30189

operational
NORAD ID: 57430 Int'l Des: 2023-105 Owner: SPXS Country: US Constellation: starlink
LEOCIRCULAR

Über Starlink 30189

Beschreibung wird geladen...

Live-Position

3D-Globus wird geladen...

Nächste Überflüge

Höhenverlauf

Altitude vs Time

uPlot chart will show altitude changes over time

Zweizeiliger Elementsatz

1 57430U 23105A 25303.84898078 -.00002201 00000-0 -14794-3 0 9990
2 57430 43.0019 247.6432 0001171 272.4377 87.6332 15.02537549125983
Epoch: 30. Okt. 2025 • Age: 24 hours

Aktueller Status

Höhe 561.9 km
Geschwindigkeit 7.59 km/s
Subsatellitenpunkt 38.23°N, 50°W
Startdatum 24. Juli 2023
Alter 2.2 years
Typ internet

Technische Details

Klassifizierung Payload
Masse 730.00 kg
Trockenmasse 700.00 kg
Gesamtmasse 730.00 kg
Länge 0.30 m
Durchmesser 4.10 m
Spannweite 29.00 m
Form Box + pan
Hersteller SPXS
Bus-Typ Starlink V2M
Phasenstatus In Orbit
Besitzer/Staat SPXS/US

Große Konstellationen

Loading constellations...